Time,TemperatureF,DewpointF,PressureIn,WindDirection,WindDirectionDegrees,WindSpeedMPH,WindSpeedGustMPH,Humidity,HourlyPrecipIn,Conditions,Clouds,dailyrainin,SoftwareType,DateUTC
2013-09-16 00:09:00,51.8,51.0,30.29,NNE,17,6.0,8.0,95,0.00,,,0.00,weatherlink.com 1.10,2013-09-16 05:09:00,
2013-09-16 00:24:00,51.4,50.0,30.29,NNE,20,6.0,7.0,95,0.00,,,0.00,weatherlink.com 1.10,2013-09-16 05:24:00,
2013-09-16 00:39:00,51.2,50.0,30.29,NNE,24,5.0,7.0,96,0.00,,,0.00,weatherlink.com 1.10,2013-09-16 05:39:00,
2013-09-16 00:54:00,51.0,50.0,30.30,NE,38,6.0,7.0,96,0.00,,,0.00,weatherlink.com 1.10,2013-09-16 05:54:00,
2013-09-16 01:09:00,50.5,49.0,30.30,NE,36,6.0,8.0,96,0.00,,,0.00,weatherlink.com 1.10,2013-09-16 06:09:00,
2013-09-16 01:24:00,50.1,49.0,30.30,NE,50,4.0,8.0,96,0.00,,,0.00,weatherlink.com 1.10,2013-09-16 06:24:00,
2013-09-16 01:39:00,49.7,49.0,30.30,NE,41,4.0,5.0,96,0.00,,,0.00,weatherlink.com 1.10,2013-09-16 06:39:00,
2013-09-16 01:55:00,49.3,48.0,30.30,NNE,28,5.0,8.0,96,0.00,,,0.00,weatherlink.com 1.10,2013-09-16 06:55:00,
2013-09-16 02:10:00,49.2,48.0,30.30,NE,37,6.0,8.0,97,0.00,,,0.00,weatherlink.com 1.10,2013-09-16 07:10:00,
2013-09-16 02:25:00,49.2,48.0,30.31,NE,46,5.0,8.0,97,0.00,,,0.00,weatherlink.com 1.10,2013-09-16 07:25:00,
2013-09-16 02:40:00,49.1,48.0,30.31,NE,40,7.0,10.0,96,0.00,,,0.00,weatherlink.com 1.10,2013-09-16 07:40:00,
2013-09-16 02:55:00,48.6,48.0,30.31,NE,44,8.0,9.0,97,0.00,,,0.00,weatherlink.com 1.10,2013-09-16 07:55:00,
2013-09-16 03:10:00,48.5,48.0,30.31,NE,42,8.0,10.0,97,0.00,,,0.00,weatherlink.com 1.10,2013-09-16 08:10:00,
2013-09-16 03:25:00,48.2,47.0,30.32,NE,56,7.0,9.0,97,0.00,,,0.00,weatherlink.com 1.10,2013-09-16 08:25:00,
2013-09-16 03:40:00,48.0,47.0,30.32,NE,53,5.0,8.0,97,0.00,,,0.00,weatherlink.com 1.10,2013-09-16 08:40:00,
2013-09-16 03:55:00,47.8,47.0,30.32,NE,50,5.0,7.0,97,0.00,,,0.00,weatherlink.com 1.10,2013-09-16 08:55:00,
2013-09-16 04:10:00,47.7,47.0,30.32,NE,35,4.0,6.0,97,0.00,,,0.00,weatherlink.com 1.10,2013-09-16 09:10:00,
2013-09-16 04:25:00,47.2,46.0,30.33,NE,41,5.0,6.0,97,0.01,,,0.01,weatherlink.com 1.10,2013-09-16 09:25:00,
2013-09-16 04:40:00,46.5,46.0,30.33,NE,41,5.0,7.0,97,0.01,,,0.01,weatherlink.com 1.10,2013-09-16 09:40:00,
2013-09-16 04:55:00,46.2,45.0,30.33,NE,36,4.0,6.0,97,0.01,,,0.01,weatherlink.com 1.10,2013-09-16 09:55:00,
2013-09-16 05:10:00,46.1,46.0,30.33,NE,54,6.0,8.0,98,0.01,,,0.01,weatherlink.com 1.10,2013-09-16 10:10:00,
2013-09-16 05:25:00,45.9,45.0,30.33,NE,37,6.0,7.0,97,0.00,,,0.01,weatherlink.com 1.10,2013-09-16 10:25:00,
2013-09-16 05:40:00,45.7,45.0,30.34,NE,41,4.0,5.0,97,0.00,,,0.01,weatherlink.com 1.10,2013-09-16 10:40:00,
2013-09-16 05:55:00,45.5,45.0,30.34,NE,48,4.0,6.0,98,0.00,,,0.01,weatherlink.com 1.10,2013-09-16 10:55:00,
2013-09-16 06:10:00,45.5,45.0,30.34,NE,37,6.0,7.0,98,0.00,,,0.01,weatherlink.com 1.10,2013-09-16 11:10:00,
2013-09-16 06:25:00,45.4,45.0,30.35,NE,34,3.0,6.0,98,0.00,,,0.01,weatherlink.com 1.10,2013-09-16 11:25:00,
2013-09-16 06:40:00,45.2,45.0,30.35,NE,38,5.0,6.0,98,0.00,,,0.01,weatherlink.com 1.10,2013-09-16 11:40:00,
2013-09-16 06:55:00,45.2,45.0,30.36,NE,48,5.0,7.0,98,0.00,,,0.01,weatherlink.com 1.10,2013-09-16 11:55:00,
2013-09-16 07:10:00,45.6,45.0,30.36,NE,47,5.0,8.0,98,0.00,,,0.01,weatherlink.com 1.10,2013-09-16 12:10:00,
2013-09-16 07:25:00,46.0,45.0,30.37,NE,47,5.0,8.0,97,0.00,,,0.01,weatherlink.com 1.10,2013-09-16 12:25:00,
2013-09-16 07:40:00,46.1,46.0,30.37,NE,45,5.0,6.0,98,0.00,,,0.01,weatherlink.com 1.10,2013-09-16 12:40:00,
2013-09-16 07:55:00,46.5,46.0,30.37,NE,54,8.0,8.0,98,0.00,,,0.01,weatherlink.com 1.10,2013-09-16 12:55:00,
2013-09-16 08:10:00,47.1,46.0,30.38,NE,46,7.0,8.0,97,0.00,,,0.01,weatherlink.com 1.10,2013-09-16 13:10:00,
2013-09-16 08:25:00,48.0,47.0,30.37,ENE,63,8.0,10.0,97,0.00,,,0.01,weatherlink.com 1.10,2013-09-16 13:25:00,
2013-09-16 08:40:00,49.3,49.0,30.38,NE,48,3.0,8.0,97,0.00,,,0.01,weatherlink.com 1.10,2013-09-16 13:40:00,
2013-09-16 08:55:00,50.6,50.0,30.39,ENE,60,6.0,9.0,96,0.00,,,0.01,weatherlink.com 1.10,2013-09-16 13:55:00,
2013-09-16 09:10:00,51.8,51.0,30.39,East,88,4.0,10.0,96,0.00,,,0.01,weatherlink.com 1.10,2013-09-16 14:10:00,
2013-09-16 09:25:00,52.4,51.0,30.40,East,95,7.0,10.0,93,0.00,,,0.01,weatherlink.com 1.10,2013-09-16 14:25:00,
2013-09-16 09:40:00,53.1,52.0,30.40,ENE,70,5.0,8.0,94,0.00,,,0.01,weatherlink.com 1.10,2013-09-16 14:40:00,
2013-09-16 09:56:00,54.0,52.0,30.40,East,79,5.0,7.0,93,0.00,,,0.01,weatherlink.com 1.10,2013-09-16 14:56:00,
2013-09-16 10:11:00,55.0,53.0,30.40,East,94,2.0,9.0,92,0.00,,,0.01,weatherlink.com 1.10,2013-09-16 15:11:00,
2013-09-16 10:26:00,55.9,53.0,30.40,ENE,63,6.0,9.0,90,0.00,,,0.01,weatherlink.com 1.10,2013-09-16 15:26:00,
2013-09-16 10:41:00,56.4,54.0,30.40,ENE,77,10.0,10.0,90,0.00,,,0.01,weatherlink.com 1.10,2013-09-16 15:41:00,
2013-09-16 10:56:00,57.5,54.0,30.40,ENE,72,8.0,12.0,88,0.00,,,0.01,weatherlink.com 1.10,2013-09-16 15:56:00,
2013-09-16 11:11:00,58.1,55.0,30.40,SE,134,0.0,9.0,88,0.00,,,0.01,weatherlink.com 1.10,2013-09-16 16:11:00,
2013-09-16 11:26:00,58.7,54.0,30.40,East,89,4.0,10.0,85,0.00,,,0.01,weatherlink.com 1.10,2013-09-16 16:26:00,
2013-09-16 11:41:00,59.3,55.0,30.40,East,79,2.0,8.0,86,0.00,,,0.01,weatherlink.com 1.10,2013-09-16 16:41:00,
2013-09-16 11:56:00,60.1,54.0,30.39,East,91,7.0,10.0,81,0.00,,,0.01,weatherlink.com 1.10,2013-09-16 16:56:00,
2013-09-16 12:11:00,60.1,54.0,30.39,ENE,71,8.0,11.0,81,0.00,,,0.01,weatherlink.com 1.10,2013-09-16 17:11:00,
2013-09-16 12:26:00,61.7,56.0,30.39,ESE,110,2.0,10.0,81,0.00,,,0.01,weatherlink.com 1.10,2013-09-16 17:26:00,
2013-09-16 12:41:00,61.8,54.0,30.39,SSE,155,4.0,10.0,76,0.00,,,0.01,weatherlink.com 1.10,2013-09-16 17:41:00,
2013-09-16 12:56:00,62.2,54.0,30.38,East,82,8.0,9.0,75,0.00,,,0.01,weatherlink.com 1.10,2013-09-16 17:56:00,
2013-09-16 13:11:00,63.6,56.0,30.38,ENE,77,3.0,7.0,75,0.00,,,0.01,weatherlink.com 1.10,2013-09-16 18:11:00,
2013-09-16 13:26:00,63.8,53.0,30.38,East,99,4.0,11.0,69,0.00,,,0.01,weatherlink.com 1.10,2013-09-16 18:26:00,
2013-09-16 13:41:00,65.3,53.0,30.37,South,180,1.0,10.0,64,0.00,,,0.01,weatherlink.com 1.10,2013-09-16 18:41:00,
2013-09-16 13:56:00,65.5,53.0,30.36,ESE,106,6.0,11.0,64,0.00,,,0.01,weatherlink.com 1.10,2013-09-16 18:56:00,
2013-09-16 14:11:00,66.2,53.0,30.35,SSE,151,3.0,11.0,62,0.00,,,0.01,weatherlink.com 1.10,2013-09-16 19:11:00,
2013-09-16 14:26:00,66.5,52.0,30.35,ESE,104,8.0,9.0,61,0.00,,,0.01,weatherlink.com 1.10,2013-09-16 19:26:00,
2013-09-16 14:41:00,66.0,53.0,30.34,East,86,8.0,9.0,63,0.00,,,0.01,weatherlink.com 1.10,2013-09-16 19:41:00,
2013-09-16 14:56:00,66.1,51.0,30.33,ENE,68,3.0,9.0,59,0.00,,,0.01,weatherlink.com 1.10,2013-09-16 19:56:00,
2013-09-16 15:11:00,64.3,52.0,30.34,ENE,68,6.0,16.0,64,0.00,,,0.01,weatherlink.com 1.10,2013-09-16 20:11:00,
2013-09-16 15:26:00,65.2,54.0,30.34,SSW,203,5.0,12.0,67,0.00,,,0.01,weatherlink.com 1.10,2013-09-16 20:26:00,
2013-09-16 15:41:00,65.0,52.0,30.33,East,99,5.0,14.0,63,0.00,,,0.01,weatherlink.com 1.10,2013-09-16 20:41:00,
2013-09-16 15:56:00,65.2,52.0,30.32,SE,143,3.0,11.0,63,0.00,,,0.01,weatherlink.com 1.10,2013-09-16 20:56:00,
2013-09-16 16:11:00,65.7,52.0,30.31,South,178,10.0,13.0,62,0.00,,,0.01,weatherlink.com 1.10,2013-09-16 21:11:00,
2013-09-16 16:26:00,65.6,52.0,30.31,SE,124,2.0,13.0,61,0.00,,,0.01,weatherlink.com 1.10,2013-09-16 21:26:00,
2013-09-16 16:41:00,65.0,52.0,30.30,SSE,167,7.0,10.0,64,0.00,,,0.01,weatherlink.com 1.10,2013-09-16 21:41:00,
2013-09-16 16:56:00,64.7,53.0,30.30,East,82,4.0,13.0,65,0.00,,,0.01,weatherlink.com 1.10,2013-09-16 21:56:00,
2013-09-16 17:11:00,63.7,52.0,30.30,East,89,8.0,16.0,65,0.00,,,0.01,weatherlink.com 1.10,2013-09-16 22:11:00,
2013-09-16 17:26:00,63.2,51.0,30.30,SSE,154,7.0,10.0,65,0.00,,,0.01,weatherlink.com 1.10,2013-09-16 22:26:00,
2013-09-16 17:41:00,63.2,51.0,30.30,ESE,121,8.0,12.0,65,0.00,,,0.01,weatherlink.com 1.10,2013-09-16 22:41:00,
2013-09-16 17:57:00,62.7,51.0,30.30,ESE,117,5.0,11.0,65,0.00,,,0.01,weatherlink.com 1.10,2013-09-16 22:57:00,
2013-09-16 18:13:00,61.6,50.0,30.29,East,96,10.0,11.0,65,0.00,,,0.01,weatherlink.com 1.10,2013-09-16 23:13:00,
2013-09-16 18:27:00,61.8,51.0,30.29,ESE,122,3.0,8.0,67,0.00,,,0.01,weatherlink.com 1.10,2013-09-16 23:27:00,
2013-09-16 18:42:00,61.7,52.0,30.29,SE,141,1.0,6.0,70,0.00,,,0.01,weatherlink.com 1.10,2013-09-16 23:42:00,
2013-09-16 18:57:00,59.7,51.0,30.28,East,84,2.0,2.0,73,0.00,,,0.01,weatherlink.com 1.10,2013-09-16 23:57:00,
2013-09-16 19:12:00,58.1,51.0,30.28,SE,138,1.0,3.0,76,0.00,,,0.01,weatherlink.com 1.10,2013-09-17 00:12:00,
2013-09-16 19:27:00,57.0,51.0,30.28,SSE,147,0.0,2.0,79,0.00,,,0.01,weatherlink.com 1.10,2013-09-17 00:27:00,
2013-09-16 19:42:00,55.9,51.0,30.27,South,179,0.0,2.0,82,0.00,,,0.01,weatherlink.com 1.10,2013-09-17 00:42:00,
2013-09-16 19:57:00,55.4,50.0,30.27,SE,145,0.0,0.0,82,0.00,,,0.01,weatherlink.com 1.10,2013-09-17 00:57:00,
2013-09-16 20:12:00,55.6,50.0,30.27,East,85,3.0,3.0,82,0.00,,,0.01,weatherlink.com 1.10,2013-09-17 01:12:00,
2013-09-16 20:27:00,56.8,50.0,30.27,East,91,3.0,4.0,79,0.00,,,0.01,weatherlink.com 1.10,2013-09-17 01:27:00,
2013-09-16 20:42:00,56.8,50.0,30.27,East,90,3.0,3.0,78,0.00,,,0.01,weatherlink.com 1.10,2013-09-17 01:42:00,
2013-09-16 20:57:00,55.5,50.0,30.27,ESE,103,1.0,2.0,81,0.00,,,0.01,weatherlink.com 1.10,2013-09-17 01:57:00,
2013-09-16 21:12:00,54.8,49.0,30.27,East,88,3.0,4.0,82,0.00,,,0.01,weatherlink.com 1.10,2013-09-17 02:12:00,
2013-09-16 21:27:00,54.6,50.0,30.27,East,91,5.0,5.0,83,0.00,,,0.01,weatherlink.com 1.10,2013-09-17 02:27:00,
2013-09-16 21:42:00,53.4,49.0,30.27,East,82,2.0,4.0,85,0.00,,,0.01,weatherlink.com 1.10,2013-09-17 02:42:00,
2013-09-16 21:57:00,52.3,49.0,30.27,East,99,2.0,3.0,87,0.00,,,0.01,weatherlink.com 1.10,2013-09-17 02:57:00,
2013-09-16 22:12:00,51.5,48.0,30.28,ESE,103,0.0,3.0,89,0.00,,,0.01,weatherlink.com 1.10,2013-09-17 03:12:00,
2013-09-16 22:27:00,51.5,48.0,30.28,ESE,119,1.0,3.0,89,0.00,,,0.01,weatherlink.com 1.10,2013-09-17 03:27:00,
2013-09-16 22:42:00,51.2,48.0,30.28,SE,139,0.0,5.0,89,0.00,,,0.01,weatherlink.com 1.10,2013-09-17 03:42:00,
2013-09-16 22:57:00,51.1,48.0,30.28,ESE,115,2.0,5.0,90,0.00,,,0.01,weatherlink.com 1.10,2013-09-17 03:57:00,
2013-09-16 23:12:00,51.1,49.0,30.29,SE,143,1.0,3.0,91,0.00,,,0.01,weatherlink.com 1.10,2013-09-17 04:12:00,
2013-09-16 23:27:00,50.8,48.0,30.29,SSE,165,7.0,8.0,91,0.00,,,0.01,weatherlink.com 1.10,2013-09-17 04:27:00,
2013-09-16 23:42:00,50.5,48.0,30.29,SSE,155,6.0,7.0,92,0.00,,,0.01,weatherlink.com 1.10,2013-09-17 04:42:00,
2013-09-16 23:57:00,50.2,48.0,30.29,SSE,160,2.0,4.0,92,0.00,,,0.01,weatherlink.com 1.10,2013-09-17 04:57:00,